Flag for U.S.A. Weather past 2 weeks in Tuba City, Arizona, U.S.A.

59 °F

Passing clouds.

Feels Like: 57 °F
Forecast: 53 / 68 °F
Wind: 9 mph from South

Location: Grand Canyon National Park Airport

Current Time: Oct 4, 2015 at 6:40:04 PM

Latest Report: Oct 4, 2015 at 5:54 PM

Visibility: 10 mi

Pressure: 29.80 "Hg (24.92 "Hg at 1510m altitude)

Humidity: 69%

Dew point: 49 °F

Location of Tuba CityLocation

Historic Weather in Tuba City — Graph


Tuba City temperature yesterday

Maximum temperature yesterday: 67 °F (at 1:54 PM)
Minimum temperature yesterday: 30 °F (at 6:54 AM)
Average temperature yesterday: 52 °F

Past Weeks' High & Low Weather Summary

High83 °F (Sep 30, 3:54 PM)96% (Sep 23, 12:54 AM)30.18 "Hg (Sep 23, 12:54 AM)
Low30 °F (Oct 3, 6:54 AM)11% (Oct 2, 4:54 PM)29.64 "Hg (Oct 3, 5:54 PM)
Average59 °F50%29.97 "Hg
* Reported Sep 19 4:54 PM — Oct 4 4:54 PM, Tuba City, Weather by CustomWeather, © 2015

Note: Actual official high and low records may vary slightly from our data, if they occured in-between our weather recording intervals... More about our weather records


Tuba City weather history for previous 24 hours

Time TempWeatherWind HumidityBarometerVisibility
4:54 PM
Sun, Oct 4
57 °FCloudy.6 mph81%29.81 "Hg10 mi
3:54 PM54 °FLight rain. Cloudy.8 mph90%29.82 "Hg10 mi
2:54 PM53 °FLight rain. Fog.5 mph86%29.84 "Hg2 mi
1:54 PM57 °FLight rain. More clouds than sun.6 mph62%29.81 "Hg10 mi
12:54 PM60 °FMostly cloudy.12 mph46%29.78 "Hg10 mi
11:54 AM63 °FPartly sunny.10 mph35%29.80 "Hg10 mi
10:54 AM60 °FSunny.17 mph33%29.79 "Hg10 mi
9:54 AM58 °FSunny.9 mph33%29.76 "Hg10 mi
8:54 AM53 °FSunny.7 mph43%29.77 "Hg10 mi
7:54 AM37 °FPassing clouds.No wind67%29.80 "Hg10 mi
6:54 AM37 °FOvercast.No wind65%29.76 "Hg10 mi
5:54 AM33 °FClear.No wind66%29.75 "Hg10 mi
4:54 AM35 °FPassing clouds.No wind64%29.73 "Hg10 mi
3:54 AM35 °FPassing clouds.No wind64%29.72 "Hg10 mi
2:54 AM35 °FClear.No wind64%29.73 "Hg10 mi
1:54 AM39 °FClear.7 mph60%29.70 "Hg10 mi
12:54 AM44 °FClear.6 mph49%29.69 "Hg10 mi
11:54 PM
Sat, Oct 3
41 °FClear.No wind55%29.72 "Hg10 mi
10:54 PM45 °FClear.3 mph49%29.69 "Hg10 mi
9:54 PM55 °FPassing clouds.7 mph37%29.65 "Hg10 mi
8:54 PM54 °FClear.5 mph37%29.68 "Hg10 mi
7:54 PM58 °FPassing clouds.7 mph33%29.70 "Hg10 mi
6:54 PM64 °FPartly sunny.9 mph26%29.67 "Hg10 mi
Weather by CustomWeather, © 2015

See weather overviewHow to use our weather pages